GEFSMW_con_probscp_246.txt.gz
Probability
10 9 8 6 5 5 6 6 6 7 9 9 8 6 6 6 6 5 5 4 4 3 3 3 3 4 5 6 7 7 6 5 6 6 6 4 4 5 6 6 5 3 1
10 10 9 8 8 9 10 10 10 11 11 10 8 6 6 6 6 5 3 4 4 4 3 3 3 4 5 6 7 7 7 7 7 7 5 3 5 6 6 5 4 2 0
9 9 10 11 11 12 13 12 14 16 14 11 8 6 7 7 7 5 4 4 5 5 4 4 4 5 6 6 6 7 8 9 8 7 5 4 5 6 5 4 3 1 0
8 8 9 11 11 11 11 14 18 19 17 13 9 8 8 8 8 7 7 7 7 6 6 5 6 6 6 5 4 4 7 9 9 8 7 6 5 5 5 4 3 1 1
6 7 9 10 11 10 11 16 20 20 18 16 13 11 10 9 8 9 9 8 7 6 5 5 5 5 5 4 2 3 6 9 9 9 8 6 5 4 4 3 3 3 3
7 9 10 11 12 12 12 16 20 20 18 16 15 15 13 11 9 9 9 8 6 5 4 4 4 4 3 2 1 2 5 8 9 8 6 4 3 3 3 3 3 4 5
11 12 13 15 15 14 15 17 18 18 15 14 15 16 15 11 10 10 10 8 5 4 5 5 5 4 3 1 2 4 6 8 7 6 4 3 2 3 3 3 3 4 6
13 14 16 18 18 16 17 17 15 13 11 10 13 15 14 12 11 11 11 9 7 6 7 8 8 7 5 4 4 6 8 8 7 4 3 3 2 3 5 6 6 6 7
11 13 16 19 19 18 18 18 15 12 10 9 11 14 14 14 14 14 13 11 9 9 9 10 10 9 8 7 7 7 8 8 7 5 4 4 4 4 7 10 11 11 11
10 12 15 18 19 20 20 19 18 15 12 10 11 13 13 14 14 14 13 11 9 9 9 9 9 9 8 9 9 8 7 7 7 6 5 5 5 6 8 10 13 16 17
11 13 15 18 22 24 24 22 20 18 15 12 12 12 11 11 11 10 10 9 9 8 7 6 6 6 6 8 9 8 7 7 6 5 5 6 7 8 9 10 12 15 17
13 16 21 24 27 29 27 25 22 19 16 13 12 11 9 8 7 7 7 8 8 7 6 5 5 5 5 7 9 8 9 9 6 4 5 8 10 11 12 12 13 13 13
16 20 26 30 32 31 28 26 23 19 17 15 14 13 11 9 9 8 8 8 7 5 4 5 6 6 6 8 9 10 11 10 7 5 8 11 13 15 16 15 14 12 10
22 25 29 33 33 30 28 26 24 21 20 20 18 17 16 15 14 13 13 11 8 6 6 7 9 9 9 10 11 11 11 9 7 7 10 12 13 15 16 15 14 12 10
27 29 32 34 34 32 29 27 25 24 24 25 23 22 22 21 21 20 19 17 14 11 10 12 13 12 11 10 10 10 9 7 6 7 11 12 12 12 11 11 10 10 9
30 31 33 36 38 37 34 31 28 26 26 25 24 23 23 23 23 23 24 23 20 17 16 16 16 14 12 10 7 7 8 9 8 9 12 12 10 9 7 6 6 6 6
32 31 33 36 39 41 39 34 30 28 26 24 20 19 20 20 20 20 22 24 24 23 22 21 19 18 16 10 5 4 7 11 12 13 14 13 11 9 7 6 5 4 3
33 32 32 34 37 41 41 36 31 30 28 24 19 18 19 19 18 18 20 24 26 27 28 26 26 25 20 11 4 3 8 14 15 14 14 14 11 9 8 9 8 6 4
33 32 31 32 35 40 43 38 32 31 30 26 22 21 23 23 22 22 24 26 26 28 29 28 29 29 22 10 3 4 11 16 15 13 11 12 10 8 7 9 9 7 5
37 35 33 34 39 45 46 42 35 33 32 30 26 25 26 27 28 29 29 28 27 27 27 26 27 27 21 10 3 5 11 15 13 10 9 8 7 5 5 7 7 6 5
42 40 37 39 44 48 49 46 41 37 34 33 31 28 29 30 31 32 31 29 28 27 27 26 26 25 19 11 4 5 9 12 11 9 8 7 5 2 2 4 5 4 3
44 43 40 40 43 44 45 45 43 40 37 36 34 31 31 32 32 31 30 29 29 28 27 26 25 23 19 13 7 4 4 8 9 9 8 7 4 1 0 1 2 1 1
46 45 41 37 35 35 36 38 38 38 36 35 34 32 31 31 32 31 29 29 28 26 24 24 23 21 18 15 10 5 3 4 7 9 9 6 2 0 0 0 0 0 0
46 45 41 34 30 30 32 34 35 35 33 31 30 29 29 30 32 31 29 27 25 24 23 22 21 19 17 16 13 9 7 6 7 9 9 6 3 2 2 2 1 1 1
41 42 39 36 32 31 32 34 34 33 29 27 26 25 26 28 29 28 25 21 20 20 19 18 18 19 16 14 13 12 10 9 8 9 9 7 6 6 5 5 4 3 3
39 39 38 37 35 32 31 33 33 30 27 25 23 23 25 27 26 23 18 15 14 14 13 14 16 17 14 10 10 10 10 9 9 9 9 8 7 7 7 6 5 4 4

GEFSMW_con_probscp_252.txt.gz
Probability
24 22 17 15 24 38 44 38 31 27 23 21 19 20 19 16 14 15 16 14 11 9 7 6 8 10 11 12 11 12 14 13 12 11 9 8 10 11 10 9 9 10 10
30 28 24 22 28 40 44 39 33 30 27 24 23 21 19 16 15 17 18 16 12 10 8 7 8 9 10 12 13 14 15 14 12 11 9 8 8 9 8 8 10 11 11
34 36 35 32 33 38 42 40 40 38 33 29 26 23 20 17 17 19 20 18 15 12 10 9 9 9 10 12 13 14 14 14 13 11 9 7 7 7 7 8 10 12 12
36 40 42 40 37 36 38 44 48 46 38 31 27 25 23 20 19 19 20 18 16 14 12 11 12 12 12 13 12 11 12 13 12 10 9 9 8 7 6 8 9 10 10
38 42 44 43 40 37 38 45 53 52 44 34 28 26 24 22 20 17 16 16 15 15 14 14 16 15 14 12 11 11 12 11 9 8 8 9 9 7 6 7 8 8 8
40 44 46 45 42 38 37 44 53 54 47 39 32 29 27 24 21 18 15 14 14 15 15 16 18 18 15 13 13 13 12 9 7 6 6 7 8 8 8 9 10 8 6
40 44 46 47 45 40 40 46 52 52 47 41 37 34 31 26 22 20 18 14 13 13 14 15 18 20 17 16 16 15 11 9 8 6 6 7 9 10 10 12 12 9 6
37 40 44 48 48 45 45 51 54 52 46 41 38 37 34 28 24 22 20 15 11 11 11 14 17 17 15 15 17 15 11 10 10 8 8 9 11 11 11 13 13 10 7
31 34 39 45 50 49 49 52 54 52 47 41 38 36 32 28 25 22 19 15 11 10 12 14 15 13 11 11 14 14 12 12 12 11 11 12 13 12 12 13 13 12 11
26 28 33 41 48 52 52 52 52 51 47 43 38 34 30 27 25 23 20 17 14 14 15 15 12 10 9 9 11 12 13 14 14 14 14 15 15 14 13 13 14 14 14
23 26 32 39 46 51 53 53 52 50 47 43 39 35 32 29 26 25 23 19 17 17 17 16 13 11 10 10 10 11 13 14 15 15 15 15 16 16 15 14 14 15 16
25 28 35 42 47 52 54 52 50 49 47 43 40 38 35 31 28 27 24 21 19 18 18 17 15 14 12 10 11 12 13 16 16 15 13 13 16 19 17 13 14 15 17
31 35 43 49 54 57 57 53 49 48 48 46 44 41 36 31 29 29 27 23 22 21 20 19 18 18 15 14 15 16 18 20 20 18 16 15 18 21 19 14 14 15 15
38 45 54 60 62 62 60 56 51 49 49 50 50 45 37 31 30 29 28 27 27 26 24 21 21 20 19 19 19 20 22 24 24 24 21 19 19 20 18 15 14 13 12
43 52 62 67 67 64 62 57 52 51 51 50 51 49 41 35 32 30 28 29 29 28 26 24 22 23 22 20 20 21 22 24 26 25 23 20 18 17 15 13 12 11 12
46 54 64 69 68 64 61 56 51 51 52 50 49 49 45 40 36 31 29 30 30 28 27 26 26 25 22 19 18 19 21 24 25 24 21 19 17 16 13 10 8 8 9
48 55 63 67 66 61 59 55 50 49 51 51 49 46 43 40 37 33 31 31 31 30 29 29 30 27 23 19 16 17 20 24 25 23 20 19 18 16 13 10 7 6 6
51 57 61 62 61 60 57 54 52 50 50 50 48 43 40 39 38 36 34 33 33 32 32 32 32 30 24 17 13 14 20 24 24 22 22 22 20 17 14 14 14 12 10
56 58 58 57 59 59 57 56 55 53 50 49 47 43 41 40 40 40 39 37 36 35 35 35 34 32 26 16 9 12 20 24 23 22 22 22 19 14 12 15 19 18 15
58 58 57 56 59 59 58 59 59 57 53 50 48 46 43 42 41 41 41 40 39 38 37 36 35 34 29 17 8 11 20 25 24 23 21 17 14 9 8 13 18 16 13
56 58 59 59 60 59 59 62 62 59 56 51 48 46 44 41 39 40 43 42 40 39 38 38 36 35 29 18 9 9 16 22 24 23 19 13 8 5 4 8 12 11 7
55 57 60 61 59 57 59 62 61 59 56 51 47 45 43 40 39 40 42 42 40 39 39 38 37 34 27 17 9 6 7 13 19 20 15 9 4 1 1 3 5 5 4
56 57 58 57 54 53 56 59 60 58 55 51 48 46 43 41 40 40 39 38 38 38 37 37 36 33 26 17 11 6 3 5 10 11 7 4 1 1 1 2 2 4 5
57 57 56 54 51 50 53 58 60 58 55 51 48 44 42 42 41 40 37 35 34 34 34 34 34 31 25 19 14 10 7 6 7 7 6 4 3 4 6 6 5 6 7
56 57 56 54 52 52 53 56 58 57 54 50 45 40 38 39 39 36 32 29 28 27 28 29 30 27 23 17 13 12 11 10 10 10 11 11 10 11 13 13 10 9 9
58 58 56 54 54 54 53 54 56 55 52 48 43 37 35 37 36 31 27 23 22 21 22 24 25 23 18 12 10 10 10 11 12 12 13 16 16 16 16 15 13 10 8

GEFSMW_con_probscp_258.txt.gz
Probability
8 11 14 13 13 14 13 11 10 9 8 9 10 9 7 4 1 2 3 4 4 6 6 6 6 6 5 5 5 3 2 2 2 1 0 0 0 0 0 0 0 0 0
10 12 13 14 16 17 15 12 11 11 10 10 10 8 7 5 3 2 4 4 5 6 6 6 6 5 4 4 3 2 1 1 1 0 0 0 0 0 0 0 0 0 0
11 12 13 16 19 19 18 16 16 15 14 13 11 9 8 6 4 3 4 5 6 6 6 6 5 4 3 3 2 1 0 0 0 0 0 0 0 0 0 0 0 0 0
11 12 14 17 20 20 20 21 21 19 17 15 13 11 9 8 5 4 4 6 6 6 6 5 4 3 3 3 2 1 0 0 0 0 0 0 0 0 0 0 0 0 0
14 17 19 21 22 22 22 24 24 21 18 14 12 11 10 8 6 5 5 6 6 5 4 4 3 3 3 2 1 0 0 0 0 0 0 0 0 0 0 0 0 0 0
18 21 24 25 25 25 26 27 27 23 18 14 11 9 8 8 7 6 6 5 4 4 3 3 3 3 2 1 0 0 0 0 0 0 0 0 0 0 0 0 0 0 0
19 24 28 29 29 29 30 31 30 26 20 15 11 9 8 8 7 6 5 4 3 3 3 3 2 1 1 0 1 1 1 1 1 1 0 0 0 0 0 0 0 0 0
21 25 30 31 31 32 34 33 31 28 23 18 13 11 10 10 8 5 4 3 2 2 2 1 1 0 0 1 2 2 2 2 2 1 0 0 0 0 0 0 0 0 0
24 27 29 29 28 30 34 34 31 28 25 21 17 15 14 12 8 5 4 3 3 2 1 1 1 1 1 2 3 3 3 2 1 1 0 0 0 0 0 0 1 1 1
26 28 29 26 25 29 33 34 32 30 27 23 19 16 15 12 9 6 4 4 3 3 2 2 3 3 3 2 2 2 2 1 0 0 0 0 0 0 0 1 2 3 3
24 27 29 27 25 28 32 35 34 33 29 23 18 15 13 11 8 6 5 5 4 3 4 4 4 4 4 3 2 1 1 1 0 1 1 1 0 0 0 2 5 6 6
25 27 28 28 27 26 29 34 34 33 30 24 17 14 13 12 10 8 6 5 3 3 4 5 5 6 6 5 4 3 2 2 2 3 3 2 1 1 1 4 7 8 8
28 29 29 29 27 25 26 29 30 31 29 24 18 15 15 16 14 11 8 6 5 5 5 6 8 9 8 7 7 6 6 6 6 7 7 6 5 5 6 7 9 9 9
30 31 31 31 28 26 25 25 27 28 28 24 21 19 19 19 18 15 12 10 8 8 8 9 11 12 11 9 10 11 11 10 11 12 12 11 10 10 11 11 11 10 9
32 32 33 34 32 29 28 28 28 29 29 28 26 24 22 22 20 18 15 13 12 12 13 13 14 14 12 11 12 14 14 13 14 14 14 13 13 12 12 11 11 10 9
30 32 34 37 37 34 32 33 33 32 32 31 29 28 25 23 21 19 17 14 13 14 16 16 16 15 13 12 13 14 14 14 14 14 12 12 12 12 10 8 7 5 4
27 30 33 36 37 34 34 35 34 32 30 29 28 26 25 24 22 20 18 16 15 16 17 17 17 17 16 15 13 13 13 13 13 12 11 11 10 10 8 6 3 2 1
26 27 29 31 30 30 31 32 31 29 26 24 23 22 22 23 22 20 19 18 18 18 17 17 18 18 18 15 10 9 11 12 11 11 10 9 8 7 6 5 3 1 1
26 26 28 29 28 27 27 27 27 27 26 23 21 18 18 19 20 20 19 20 21 20 18 17 18 19 18 13 5 4 10 13 12 10 9 7 6 5 3 3 3 2 1
24 25 28 31 30 29 27 26 26 26 25 24 23 21 18 16 16 18 20 22 24 24 22 19 18 18 16 11 4 4 10 14 13 10 8 7 5 3 1 1 2 2 1
25 26 30 32 31 29 30 28 27 27 26 25 25 24 21 18 17 18 21 24 26 27 25 22 20 19 16 11 5 4 9 12 12 11 10 7 4 1 0 1 1 1 0
29 29 31 33 29 28 30 29 27 26 26 26 26 25 24 22 21 23 25 25 25 26 26 25 23 22 19 13 6 3 5 7 9 10 10 8 4 1 0 0 0 0 0
32 32 34 34 29 27 27 27 26 25 24 24 24 24 24 22 22 25 27 26 25 24 24 24 24 24 22 17 9 4 2 2 3 6 7 5 3 1 0 0 0 0 0
34 35 36 34 29 26 25 25 25 24 23 21 21 22 22 20 21 23 25 26 25 23 23 23 23 23 21 17 12 7 4 2 1 2 3 3 2 1 0 0 0 0 0
34 36 35 32 28 25 24 24 24 24 23 21 21 21 20 19 18 18 19 21 21 20 21 22 23 22 19 15 11 8 5 4 2 1 1 2 2 2 1 1 1 1 1
34 35 33 30 27 25 24 23 23 24 25 23 22 21 20 18 15 14 13 14 14 15 17 20 21 20 17 13 8 5 4 3 1 1 2 3 3 3 2 2 2 2 2

GEFSMW_con_probscp_264.txt.gz
Probability
0 0 0 0 0 0 0 2 4 7 8 8 10 9 7 5 5 4 4 4 5 6 6 6 4 3 3 3 2 1 0 0 0 0 0 0 0 0 0 0 0 0 0
0 0 0 0 0 0 2 3 6 8 9 10 11 10 7 5 5 4 4 5 6 6 6 5 4 3 3 3 2 1 0 0 0 0 0 0 0 0 0 0 0 0 0
0 0 0 1 1 2 4 5 7 8 9 10 11 10 7 5 5 5 5 6 6 5 4 4 3 3 3 3 2 1 0 0 0 0 0 0 0 0 0 0 0 0 0
1 1 1 2 3 3 4 6 7 7 7 8 10 10 7 6 5 5 5 6 5 4 3 3 3 3 3 2 1 0 0 0 0 0 0 0 0 0 0 0 0 0 0
5 4 4 4 5 5 6 7 8 6 5 6 7 8 7 6 6 5 4 4 4 3 3 2 2 2 2 1 0 0 0 0 0 0 0 0 0 0 0 0 0 0 0
9 7 7 8 8 7 8 8 7 5 4 5 5 5 5 6 5 4 3 3 2 2 1 1 1 1 1 0 0 0 0 0 0 0 0 0 0 0 0 0 0 0 0
8 9 10 11 10 9 9 9 6 5 5 4 3 3 4 4 4 3 2 1 1 1 0 0 0 0 0 0 0 0 0 0 0 0 0 0 0 0 0 0 0 0 0
7 9 12 13 13 12 11 9 7 7 6 5 3 3 3 4 4 2 1 0 0 0 0 0 0 0 0 0 0 0 0 0 0 0 0 0 0 0 0 1 1 1 0
6 8 11 14 16 15 13 11 10 10 9 7 5 4 4 4 4 2 0 0 0 0 0 0 0 0 0 0 0 0 0 0 0 0 0 0 0 0 1 3 3 3 2
4 5 7 12 16 17 15 13 13 13 13 10 8 6 4 4 3 1 1 1 1 0 0 0 0 0 0 0 0 0 0 0 0 0 0 0 0 1 3 5 6 5 5
3 3 5 9 14 17 16 15 15 16 15 13 11 9 6 4 3 2 2 2 2 1 0 0 0 0 0 0 0 0 0 0 0 0 1 1 1 2 5 6 7 7 7
4 4 5 8 13 17 18 18 18 18 17 14 13 12 10 8 6 4 4 4 4 3 2 1 1 1 1 1 2 1 1 1 1 1 2 3 3 4 6 7 8 8 9
4 5 5 8 12 16 18 19 19 19 18 16 15 14 13 11 10 8 7 6 6 5 5 4 3 3 3 3 3 3 3 3 3 3 4 5 6 6 8 9 9 9 10
5 6 8 10 13 14 16 19 19 19 18 17 16 15 14 12 11 10 9 8 8 7 8 8 7 6 6 5 5 5 6 5 5 5 6 6 7 8 9 10 10 10 10
6 8 10 12 14 13 14 16 18 18 17 17 15 15 15 14 13 11 11 10 9 9 9 9 9 8 7 6 6 8 8 8 7 7 7 7 7 7 8 8 8 8 8
9 9 10 11 12 11 12 14 16 17 17 15 12 13 15 15 13 13 13 12 11 10 11 11 10 9 9 7 6 7 8 9 9 9 9 8 8 7 6 5 5 5 5
10 9 9 10 10 10 11 13 15 16 17 13 9 10 12 13 13 14 15 14 12 11 11 11 11 11 10 6 3 4 7 9 9 9 10 10 9 8 6 4 4 3 3
8 7 7 8 10 12 12 13 14 16 16 13 10 10 11 12 13 15 16 15 14 12 11 11 11 11 9 4 1 2 6 8 8 8 9 9 9 7 5 4 5 5 5
8 7 7 9 11 13 14 13 14 16 16 14 13 13 15 15 14 14 15 15 15 14 13 12 11 10 7 3 0 2 7 9 8 7 7 6 5 4 2 2 4 6 7
9 9 10 10 11 13 13 12 12 13 14 14 15 17 18 18 17 15 14 15 16 16 15 14 13 11 9 5 1 3 7 10 10 9 7 4 2 1 0 1 3 5 6
9 9 9 10 11 12 11 10 10 11 12 13 15 18 19 19 19 16 14 14 15 16 16 16 16 15 13 9 4 3 6 10 12 10 8 5 2 0 0 1 2 3 3
9 8 7 9 10 12 12 11 11 12 13 13 15 17 18 19 19 17 13 12 13 14 16 17 17 16 15 12 7 3 3 7 11 11 9 7 3 1 0 0 1 1 1
10 9 7 8 10 12 14 15 15 15 16 15 14 15 16 17 18 16 13 12 11 12 14 16 16 17 17 16 11 4 2 3 7 9 7 5 3 1 0 0 0 0 0
13 11 9 8 10 12 15 16 16 16 17 16 14 12 12 14 14 14 13 13 12 11 12 14 16 17 19 18 14 9 6 4 4 5 5 4 3 3 2 2 1 1 0
17 14 11 11 11 13 14 15 16 16 16 15 13 12 12 12 12 12 13 13 11 9 9 12 14 15 17 16 13 11 9 6 4 5 5 6 7 7 6 5 4 3 1
19 16 14 13 13 14 14 15 16 17 16 14 12 12 12 12 12 12 12 11 10 7 6 8 11 13 14 12 9 8 8 6 4 5 6 7 9 9 8 7 6 4 3